Time,TemperatureF,DewpointF,PressureIn,WindDirection,WindDirectionDegrees,WindSpeedMPH,WindSpeedGustMPH,Humidity,HourlyPrecipIn,Conditions,Clouds,dailyrainin,SoftwareType,DateUTC
2013-04-22 00:05:00,43.2,31.1,30.20,SSE,158,2.0,2.0,62,0.00,,,0.00,Wunderground v.1.13,2013-04-22 05:05:00,
2013-04-22 00:15:00,43.3,30.7,30.20,SSE,155,2.0,6.0,61,0.00,,,0.00,Wunderground v.1.13,2013-04-22 05:15:00,
2013-04-22 00:20:00,43.3,30.7,30.20,SSE,167,2.0,6.0,61,0.00,,,0.00,Wunderground v.1.13,2013-04-22 05:20:00,
2013-04-22 00:25:00,43.5,30.9,30.20,SE,142,4.0,6.0,61,0.00,,,0.00,Wunderground v.1.13,2013-04-22 05:25:00,
2013-04-22 00:35:00,43.5,30.9,30.20,SSE,151,3.0,10.0,61,0.00,,,0.00,Wunderground v.1.13,2013-04-22 05:35:00,
2013-04-22 00:45:00,43.8,31.2,30.20,South,188,4.0,4.0,61,0.00,,,0.00,Wunderground v.1.13,2013-04-22 05:45:00,
2013-04-22 00:50:00,43.6,31.0,30.20,South,177,4.0,4.0,61,0.00,,,0.00,Wunderground v.1.13,2013-04-22 05:50:00,
2013-04-22 01:00:00,43.3,31.1,30.20,SSE,161,3.0,3.0,62,0.00,,,0.00,Wunderground v.1.13,2013-04-22 06:00:00,
2013-04-22 01:05:00,43.2,31.1,30.20,South,182,2.0,14.0,62,0.00,,,0.00,Wunderground v.1.13,2013-04-22 06:05:00,
2013-04-22 01:15:00,43.1,31.4,30.20,SSE,162,2.0,2.0,63,0.00,,,0.00,Wunderground v.1.13,2013-04-22 06:15:00,
2013-04-22 01:25:00,42.8,31.5,30.20,South,171,3.0,3.0,64,0.00,,,0.00,Wunderground v.1.13,2013-04-22 06:25:00,
2013-04-22 01:35:00,42.6,31.3,30.20,SSE,160,4.0,13.0,64,0.00,,,0.00,Wunderground v.1.13,2013-04-22 06:35:00,
2013-04-22 01:45:00,42.3,31.4,30.19,SSE,165,3.0,3.0,65,0.00,,,0.00,Wunderground v.1.13,2013-04-22 06:45:00,
2013-04-22 01:55:00,42.1,31.2,30.18,SSE,161,2.0,13.0,65,0.00,,,0.00,Wunderground v.1.13,2013-04-22 06:55:00,
2013-04-22 02:05:00,42.1,31.6,30.18,SE,131,3.0,11.0,66,0.00,,,0.00,Wunderground v.1.13,2013-04-22 07:05:00,
2013-04-22 02:15:00,42.1,31.2,30.18,SSE,167,3.0,11.0,65,0.00,,,0.00,Wunderground v.1.13,2013-04-22 07:15:00,
2013-04-22 02:25:00,42.1,31.2,30.18,SSE,163,4.0,11.0,65,0.00,,,0.00,Wunderground v.1.13,2013-04-22 07:25:00,
2013-04-22 02:30:00,42.2,31.3,30.18,South,170,5.0,5.0,65,0.00,,,0.00,Wunderground v.1.13,2013-04-22 07:30:00,
2013-04-22 02:40:00,42.2,31.3,30.18,SSE,165,4.0,10.0,65,0.00,,,0.00,Wunderground v.1.13,2013-04-22 07:40:00,
2013-04-22 02:45:00,42.2,31.3,30.18,SSE,148,4.0,10.0,65,0.00,,,0.00,Wunderground v.1.13,2013-04-22 07:45:00,
2013-04-22 02:55:00,42.2,30.9,30.17,SSE,159,5.0,10.0,64,0.00,,,0.00,Wunderground v.1.13,2013-04-22 07:55:00,
2013-04-22 03:00:00,42.2,30.9,30.17,SSE,147,4.0,10.0,64,0.00,,,0.00,Wunderground v.1.13,2013-04-22 08:00:00,
2013-04-22 03:05:00,42.3,31.0,30.18,SSE,149,3.0,12.0,64,0.00,,,0.00,Wunderground v.1.13,2013-04-22 08:05:00,
2013-04-22 03:15:00,42.5,31.2,30.18,South,171,3.0,12.0,64,0.00,,,0.00,Wunderground v.1.13,2013-04-22 08:15:00,
2013-04-22 03:20:00,42.6,31.3,30.17,South,190,3.0,12.0,64,0.00,,,0.00,Wunderground v.1.13,2013-04-22 08:20:00,
2013-04-22 03:30:00,42.5,31.2,30.17,SSE,151,2.0,12.0,64,0.00,,,0.00,Wunderground v.1.13,2013-04-22 08:30:00,
2013-04-22 03:35:00,42.3,31.0,30.17,SSE,166,2.0,16.0,64,0.00,,,0.00,Wunderground v.1.13,2013-04-22 08:35:00,
2013-04-22 03:40:00,42.3,31.0,30.17,SSE,159,2.0,16.0,64,0.00,,,0.00,Wunderground v.1.13,2013-04-22 08:40:00,
2013-04-22 03:45:00,42.3,31.0,30.17,SSE,150,2.0,2.0,64,0.00,,,0.00,Wunderground v.1.13,2013-04-22 08:45:00,
2013-04-22 03:55:00,42.2,30.9,30.17,SSE,162,2.0,16.0,64,0.00,,,0.00,Wunderground v.1.13,2013-04-22 08:55:00,
2013-04-22 04:00:00,42.1,30.8,30.17,SSE,160,2.0,2.0,64,0.00,,,0.00,Wunderground v.1.13,2013-04-22 09:00:00,
2013-04-22 04:05:00,42.2,30.9,30.17,SSE,150,3.0,12.0,64,0.00,,,0.00,Wunderground v.1.13,2013-04-22 09:05:00,
2013-04-22 04:15:00,42.1,30.8,30.17,SSE,162,2.0,12.0,64,0.00,,,0.00,Wunderground v.1.13,2013-04-22 09:15:00,
2013-04-22 04:25:00,42.2,30.9,30.17,SSE,168,3.0,12.0,64,0.00,,,0.00,Wunderground v.1.13,2013-04-22 09:25:00,
2013-04-22 04:30:00,42.2,30.9,30.17,SSE,147,2.0,12.0,64,0.00,,,0.00,Wunderground v.1.13,2013-04-22 09:30:00,
2013-04-22 04:40:00,42.3,31.0,30.17,SSE,155,3.0,9.0,64,0.00,,,0.00,Wunderground v.1.13,2013-04-22 09:40:00,
2013-04-22 04:45:00,42.3,31.0,30.17,SSE,155,3.0,3.0,64,0.00,,,0.00,Wunderground v.1.13,2013-04-22 09:45:00,
2013-04-22 04:50:00,42.3,31.0,30.18,SSE,167,2.0,9.0,64,0.00,,,0.00,Wunderground v.1.13,2013-04-22 09:50:00,
2013-04-22 05:00:00,42.2,30.9,30.18,SSE,149,2.0,9.0,64,0.00,,,0.00,Wunderground v.1.13,2013-04-22 10:00:00,
2013-04-22 05:05:00,42.2,30.9,30.17,SSE,150,3.0,11.0,64,0.00,,,0.00,Wunderground v.1.13,2013-04-22 10:05:00,
2013-04-22 05:15:00,42.2,30.9,30.17,SSE,161,3.0,3.0,64,0.00,,,0.00,Wunderground v.1.13,2013-04-22 10:15:00,
2013-04-22 05:20:00,42.1,30.8,30.17,SSE,155,1.0,11.0,64,0.00,,,0.00,Wunderground v.1.13,2013-04-22 10:20:00,
2013-04-22 05:30:00,42.2,30.9,30.17,SSW,200,3.0,3.0,64,0.00,,,0.00,Wunderground v.1.13,2013-04-22 10:30:00,
2013-04-22 05:40:00,42.5,31.2,30.17,SSE,158,3.0,3.0,64,0.00,,,0.00,Wunderground v.1.13,2013-04-22 10:40:00,
2013-04-22 05:45:00,42.6,30.9,30.17,SSE,158,2.0,2.0,63,0.00,,,0.00,Wunderground v.1.13,2013-04-22 10:45:00,
2013-04-22 05:55:00,42.8,31.1,30.17,SSW,192,2.0,10.0,63,0.00,,,0.00,Wunderground v.1.13,2013-04-22 10:55:00,
2013-04-22 06:00:00,42.8,31.1,30.17,SSE,159,3.0,10.0,63,0.00,,,0.00,Wunderground v.1.13,2013-04-22 11:00:00,
2013-04-22 06:05:00,42.8,31.1,30.17,SE,143,3.0,3.0,63,0.00,,,0.00,Wunderground v.1.13,2013-04-22 11:05:00,
2013-04-22 06:15:00,42.8,31.1,30.17,SE,146,1.0,1.0,63,0.00,,,0.00,Wunderground v.1.13,2013-04-22 11:15:00,
2013-04-22 06:20:00,42.8,31.1,30.17,SE,146,1.0,10.0,63,0.00,,,0.00,Wunderground v.1.13,2013-04-22 11:20:00,
2013-04-22 06:30:00,42.8,31.1,30.17,SSE,155,3.0,10.0,63,0.00,,,0.00,Wunderground v.1.13,2013-04-22 11:30:00,
2013-04-22 06:35:00,42.8,31.1,30.17,SSE,159,3.0,12.0,63,0.00,,,0.00,Wunderground v.1.13,2013-04-22 11:35:00,
2013-04-22 06:45:00,42.8,31.1,30.17,SSE,160,3.0,12.0,63,0.00,,,0.00,Wunderground v.1.13,2013-04-22 11:45:00,
2013-04-22 06:50:00,42.8,31.1,30.17,SSE,158,2.0,12.0,63,0.00,,,0.00,Wunderground v.1.13,2013-04-22 11:50:00,
2013-04-22 06:55:00,42.8,31.1,30.17,SSE,157,2.0,12.0,63,0.00,,,0.00,Wunderground v.1.13,2013-04-22 11:55:00,
2013-04-22 07:05:00,42.9,31.2,30.17,SSE,154,3.0,3.0,63,0.00,,,0.00,Wunderground v.1.13,2013-04-22 12:05:00,
2013-04-22 07:15:00,43.1,31.0,30.17,SSE,156,2.0,11.0,62,0.00,,,0.00,Wunderground v.1.13,2013-04-22 12:15:00,
2013-04-22 07:25:00,43.2,31.1,30.17,South,171,3.0,11.0,62,0.00,,,0.00,Wunderground v.1.13,2013-04-22 12:25:00,
2013-04-22 07:30:00,43.3,31.1,30.17,SSE,166,2.0,2.0,62,0.00,,,0.00,Wunderground v.1.13,2013-04-22 12:30:00,
2013-04-22 07:40:00,43.5,31.3,30.17,SSE,166,4.0,4.0,62,0.00,,,0.00,Wunderground v.1.13,2013-04-22 12:40:00,
2013-04-22 07:45:00,43.5,30.9,30.17,SSE,163,4.0,4.0,61,0.00,,,0.00,Wunderground v.1.13,2013-04-22 12:45:00,
2013-04-22 07:55:00,43.8,31.2,30.17,SSE,160,4.0,4.0,61,0.00,,,0.00,Wunderground v.1.13,2013-04-22 12:55:00,
2013-04-22 08:05:00,44.5,31.9,30.16,SSE,162,4.0,4.0,61,0.00,,,0.00,Wunderground v.1.13,2013-04-22 13:05:00,
2013-04-22 08:15:00,46.1,32.6,30.16,South,172,4.0,12.0,59,0.00,,,0.00,Wunderground v.1.13,2013-04-22 13:15:00,
2013-04-22 08:25:00,46.5,31.6,30.16,South,169,6.0,6.0,56,0.00,,,0.00,Wunderground v.1.13,2013-04-22 13:25:00,
2013-04-22 08:30:00,46.8,31.9,30.16,SSE,154,5.0,5.0,56,0.00,,,0.00,Wunderground v.1.13,2013-04-22 13:30:00,
2013-04-22 08:40:00,47.6,32.7,30.16,SSE,166,4.0,12.0,56,0.00,,,0.00,Wunderground v.1.13,2013-04-22 13:40:00,
2013-04-22 08:50:00,48.2,32.3,30.15,South,182,4.0,4.0,54,0.00,,,0.00,Wunderground v.1.13,2013-04-22 13:50:00,
2013-04-22 09:00:00,48.8,31.9,30.15,SSE,155,4.0,12.0,52,0.00,,,0.00,Wunderground v.1.13,2013-04-22 14:00:00,
2013-04-22 09:05:00,49.4,32.0,30.15,South,188,6.0,16.0,51,0.00,,,0.00,Wunderground v.1.13,2013-04-22 14:05:00,
2013-04-22 09:15:00,50.7,32.7,30.15,SSW,192,6.0,6.0,50,0.00,,,0.00,Wunderground v.1.13,2013-04-22 14:15:00,
2013-04-22 09:25:00,51.3,33.8,30.15,SSE,159,5.0,5.0,51,0.00,,,0.00,Wunderground v.1.13,2013-04-22 14:25:00,
2013-04-22 09:35:00,52.2,33.6,30.15,South,178,3.0,3.0,49,0.00,,,0.00,Wunderground v.1.13,2013-04-22 14:35:00,
2013-04-22 09:45:00,52.9,33.2,30.15,SSE,163,4.0,4.0,47,0.00,,,0.00,Wunderground v.1.13,2013-04-22 14:45:00,
2013-04-22 09:50:00,52.9,33.2,30.15,SSE,166,4.0,4.0,47,0.00,,,0.00,Wunderground v.1.13,2013-04-22 14:50:00,
2013-04-22 09:55:00,52.6,34.0,30.15,South,179,3.0,3.0,49,0.00,,,0.00,Wunderground v.1.13,2013-04-22 14:55:00,
2013-04-22 10:00:00,52.6,33.5,30.15,SE,132,3.0,3.0,48,0.00,,,0.00,Wunderground v.1.13,2013-04-22 15:00:00,
2013-04-22 10:05:00,52.8,34.2,30.14,SSE,157,4.0,4.0,49,0.00,,,0.00,Wunderground v.1.13,2013-04-22 15:05:00,
2013-04-22 10:15:00,53.1,33.4,30.14,South,171,5.0,5.0,47,0.00,,,0.00,Wunderground v.1.13,2013-04-22 15:15:00,
2013-04-22 10:20:00,52.9,32.7,30.14,SSW,200,6.0,6.0,46,0.00,,,0.00,Wunderground v.1.13,2013-04-22 15:20:00,
2013-04-22 10:30:00,52.8,33.1,30.14,SSE,161,5.0,5.0,47,0.00,,,0.00,Wunderground v.1.13,2013-04-22 15:30:00,
2013-04-22 10:40:00,52.9,33.7,30.14,South,181,3.0,11.0,48,0.00,,,0.00,Wunderground v.1.13,2013-04-22 15:40:00,
2013-04-22 10:45:00,53.1,33.9,30.14,South,178,3.0,11.0,48,0.00,,,0.00,Wunderground v.1.13,2013-04-22 15:45:00,
2013-04-22 10:50:00,53.6,33.8,30.14,SSE,159,3.0,3.0,47,0.00,,,0.00,Wunderground v.1.13,2013-04-22 15:50:00,
2013-04-22 11:00:00,54.4,34.0,30.14,SSW,202,5.0,5.0,46,0.00,,,0.00,Wunderground v.1.13,2013-04-22 16:00:00,
2013-04-22 11:05:00,54.7,34.3,30.14,SSW,196,5.0,12.0,46,0.00,,,0.00,Wunderground v.1.13,2013-04-22 16:05:00,
2013-04-22 11:15:00,55.4,36.0,30.14,South,172,4.0,4.0,48,0.00,,,0.00,Wunderground v.1.13,2013-04-22 16:15:00,
2013-04-22 11:25:00,55.9,34.8,30.13,SSW,202,4.0,4.0,45,0.00,,,0.00,Wunderground v.1.13,2013-04-22 16:25:00,
2013-04-22 11:35:00,57.2,36.6,30.13,SSW,194,4.0,12.0,46,0.00,,,0.00,Wunderground v.1.13,2013-04-22 16:35:00,
2013-04-22 11:45:00,58.6,36.7,30.13,SSW,200,4.0,12.0,44,0.00,,,0.00,Wunderground v.1.13,2013-04-22 16:45:00,
2013-04-22 11:50:00,58.7,35.7,30.13,South,174,4.0,12.0,42,0.00,,,0.00,Wunderground v.1.13,2013-04-22 16:50:00,
2013-04-22 11:55:00,59.0,36.5,30.12,ESE,105,5.0,5.0,43,0.00,,,0.00,Wunderground v.1.13,2013-04-22 16:55:00,
2013-04-22 12:00:00,59.5,38.7,30.12,SE,131,3.0,12.0,46,0.00,,,0.00,Wunderground v.1.13,2013-04-22 17:00:00,
2013-04-22 12:05:00,60.1,36.3,30.12,SSW,192,4.0,12.0,41,0.00,,,0.00,Wunderground v.1.13,2013-04-22 17:05:00,
2013-04-22 12:15:00,60.7,38.1,30.12,South,175,5.0,12.0,43,0.00,,,0.00,Wunderground v.1.13,2013-04-22 17:15:00,
2013-04-22 12:25:00,61.0,36.5,30.11,South,169,4.0,4.0,40,0.00,,,0.00,Wunderground v.1.13,2013-04-22 17:25:00,
2013-04-22 12:35:00,60.9,37.0,30.11,South,184,5.0,11.0,41,0.00,,,0.00,Wunderground v.1.13,2013-04-22 17:35:00,
2013-04-22 12:40:00,61.0,37.7,30.10,SSE,167,4.0,4.0,42,0.00,,,0.00,Wunderground v.1.13,2013-04-22 17:40:00,
2013-04-22 12:45:00,61.5,36.3,30.10,South,182,4.0,11.0,39,0.00,,,0.00,Wunderground v.1.13,2013-04-22 17:45:00,
2013-04-22 12:55:00,61.3,36.8,30.09,SSW,198,6.0,6.0,40,0.00,,,0.00,Wunderground v.1.13,2013-04-22 17:55:00,
2013-04-22 13:00:00,62.1,38.1,30.09,South,184,5.0,5.0,41,0.00,,,0.00,Wunderground v.1.13,2013-04-22 18:00:00,
2013-04-22 13:05:00,62.4,37.7,30.09,SSE,164,4.0,13.0,40,0.00,,,0.00,Wunderground v.1.13,2013-04-22 18:05:00,
2013-04-22 13:15:00,62.4,37.7,30.09,SSW,192,5.0,13.0,40,0.00,,,0.00,Wunderground v.1.13,2013-04-22 18:15:00,
2013-04-22 13:20:00,62.9,36.9,30.09,SSW,193,4.0,13.0,38,0.00,,,0.00,Wunderground v.1.13,2013-04-22 18:20:00,
2013-04-22 13:30:00,64.0,37.9,30.07,WSW,247,4.0,13.0,38,0.00,,,0.00,Wunderground v.1.13,2013-04-22 18:30:00,
2013-04-22 13:40:00,63.5,36.7,30.07,SSW,205,6.0,13.0,37,0.00,,,0.00,Wunderground v.1.13,2013-04-22 18:40:00,
2013-04-22 13:45:00,63.9,38.4,30.07,SSE,159,5.0,5.0,39,0.00,,,0.00,Wunderground v.1.13,2013-04-22 18:45:00,
2013-04-22 13:50:00,63.9,37.8,30.06,South,173,4.0,13.0,38,0.00,,,0.00,Wunderground v.1.13,2013-04-22 18:50:00,
2013-04-22 14:00:00,63.9,37.1,30.06,SSW,205,5.0,13.0,37,0.00,,,0.00,Wunderground v.1.13,2013-04-22 19:00:00,
2013-04-22 14:05:00,64.5,38.3,30.06,South,178,5.0,5.0,38,0.00,,,0.00,Wunderground v.1.13,2013-04-22 19:05:00,
2013-04-22 14:15:00,65.3,38.3,30.06,SSW,192,4.0,12.0,37,0.00,,,0.00,Wunderground v.1.13,2013-04-22 19:15:00,
2013-04-22 14:25:00,65.5,40.5,30.05,South,175,4.0,12.0,40,0.00,,,0.00,Wunderground v.1.13,2013-04-22 19:25:00,
2013-04-22 14:30:00,65.6,38.6,30.05,South,178,4.0,4.0,37,0.00,,,0.00,Wunderground v.1.13,2013-04-22 19:30:00,
2013-04-22 14:40:00,65.2,38.9,30.04,SE,146,5.0,5.0,38,0.00,,,0.00,Wunderground v.1.13,2013-04-22 19:40:00,
2013-04-22 14:45:00,65.3,39.0,30.04,SSE,164,5.0,14.0,38,0.00,,,0.00,Wunderground v.1.13,2013-04-22 19:45:00,
2013-04-22 14:55:00,66.1,38.4,30.02,SE,142,5.0,14.0,36,0.00,,,0.00,Wunderground v.1.13,2013-04-22 19:55:00,
2013-04-22 15:00:00,66.3,37.8,30.02,SE,135,5.0,5.0,35,0.00,,,0.00,Wunderground v.1.13,2013-04-22 20:00:00,
2013-04-22 15:05:00,66.1,40.4,30.01,SSE,149,5.0,12.0,39,0.00,,,0.00,Wunderground v.1.13,2013-04-22 20:05:00,
2013-04-22 15:15:00,65.6,38.6,30.01,SSE,161,4.0,12.0,37,0.00,,,0.00,Wunderground v.1.13,2013-04-22 20:15:00,
2013-04-22 15:20:00,65.6,37.9,30.01,SSE,161,4.0,12.0,36,0.00,,,0.00,Wunderground v.1.13,2013-04-22 20:20:00,
2013-04-22 15:25:00,65.6,39.3,30.01,SSE,148,6.0,6.0,38,0.00,,,0.00,Wunderground v.1.13,2013-04-22 20:25:00,
2013-04-22 15:35:00,65.8,37.4,30.01,SSE,158,5.0,5.0,35,0.00,,,0.00,Wunderground v.1.13,2013-04-22 20:35:00,
2013-04-22 15:45:00,65.3,35.4,30.01,SSE,161,7.0,13.0,33,0.00,,,0.00,Wunderground v.1.13,2013-04-22 20:45:00,
2013-04-22 15:55:00,65.8,36.6,30.00,South,176,6.0,13.0,34,0.00,,,0.00,Wunderground v.1.13,2013-04-22 20:55:00,
2013-04-22 16:00:00,65.5,36.4,30.00,SSE,167,6.0,6.0,34,0.00,,,0.00,Wunderground v.1.13,2013-04-22 21:00:00,
2013-04-22 16:05:00,66.0,37.5,29.99,SSW,194,5.0,5.0,35,0.00,,,0.00,Wunderground v.1.13,2013-04-22 21:05:00,
2013-04-22 16:15:00,66.9,39.1,29.99,South,189,4.0,4.0,36,0.00,,,0.00,Wunderground v.1.13,2013-04-22 21:15:00,
2013-04-22 16:20:00,67.4,38.8,29.99,SSE,163,4.0,15.0,35,0.00,,,0.00,Wunderground v.1.13,2013-04-22 21:20:00,
2013-04-22 16:25:00,67.3,35.6,29.99,South,170,5.0,16.0,31,0.00,,,0.00,Wunderground v.1.13,2013-04-22 21:25:00,
2013-04-22 16:35:00,66.3,34.7,29.99,SSE,163,7.0,7.0,31,0.00,,,0.00,Wunderground v.1.13,2013-04-22 21:35:00,
2013-04-22 16:45:00,66.4,34.0,29.98,South,188,7.0,15.0,30,0.00,,,0.00,Wunderground v.1.13,2013-04-22 21:45:00,
2013-04-22 16:55:00,66.3,34.7,29.97,South,182,6.0,6.0,31,0.00,,,0.00,Wunderground v.1.13,2013-04-22 21:55:00,
2013-04-22 17:05:00,65.2,34.6,29.97,SSW,197,6.0,16.0,32,0.00,,,0.00,Wunderground v.1.13,2013-04-22 22:05:00,
2013-04-22 17:15:00,64.3,36.0,29.97,SSE,161,5.0,5.0,35,0.00,,,0.00,Wunderground v.1.13,2013-04-22 22:15:00,
2013-04-22 17:20:00,64.2,34.5,29.97,SSE,157,5.0,16.0,33,0.00,,,0.00,Wunderground v.1.13,2013-04-22 22:20:00,
2013-04-22 17:30:00,63.9,33.4,29.97,SSE,161,7.0,7.0,32,0.00,,,0.00,Wunderground v.1.13,2013-04-22 22:30:00,
2013-04-22 17:35:00,63.7,34.8,29.96,SSE,166,7.0,14.0,34,0.00,,,0.00,Wunderground v.1.13,2013-04-22 22:35:00,
2013-04-22 17:45:00,63.9,35.0,29.96,SSE,155,6.0,6.0,34,0.00,,,0.00,Wunderground v.1.13,2013-04-22 22:45:00,
2013-04-22 17:55:00,63.7,34.8,29.96,SSE,151,6.0,6.0,34,0.00,,,0.00,Wunderground v.1.13,2013-04-22 22:55:00,
2013-04-22 18:00:00,63.5,35.3,29.96,SE,141,6.0,6.0,35,0.00,,,0.00,Wunderground v.1.13,2013-04-22 23:00:00,
2013-04-22 18:05:00,63.1,37.1,29.96,SSE,147,5.0,18.0,38,0.00,,,0.00,Wunderground v.1.13,2013-04-22 23:05:00,
2013-04-22 18:15:00,61.6,37.0,29.96,SE,140,4.0,18.0,40,0.00,,,0.00,Wunderground v.1.13,2013-04-22 23:15:00,
2013-04-22 18:25:00,60.5,37.9,29.96,SE,144,3.0,3.0,43,0.00,,,0.00,Wunderground v.1.13,2013-04-22 23:25:00,
2013-04-22 18:35:00,59.6,37.6,29.96,East,92,1.0,14.0,44,0.00,,,0.00,Wunderground v.1.13,2013-04-22 23:35:00,
2013-04-22 18:45:00,58.7,36.8,29.96,ESE,118,1.0,1.0,44,0.00,,,0.00,Wunderground v.1.13,2013-04-22 23:45:00,
2013-04-22 18:50:00,58.6,36.7,29.96,ESE,111,1.0,1.0,44,0.00,,,0.00,Wunderground v.1.13,2013-04-22 23:50:00,
2013-04-22 19:00:00,58.3,36.5,29.96,ESE,104,1.0,14.0,44,0.00,,,0.00,Wunderground v.1.13,2013-04-23 00:00:00,
2013-04-22 19:05:00,58.0,36.8,29.95,East,80,1.0,1.0,45,0.00,,,0.00,Wunderground v.1.13,2013-04-23 00:05:00,
2013-04-22 19:15:00,57.5,36.9,29.95,SE,144,1.0,13.0,46,0.00,,,0.00,Wunderground v.1.13,2013-04-23 00:15:00,
2013-04-22 19:20:00,57.3,36.7,29.95,SSE,151,1.0,1.0,46,0.00,,,0.00,Wunderground v.1.13,2013-04-23 00:20:00,
2013-04-22 19:30:00,56.6,36.0,29.95,ESE,111,1.0,1.0,46,0.00,,,0.00,Wunderground v.1.13,2013-04-23 00:30:00,
2013-04-22 19:35:00,56.5,35.4,29.95,SE,140,1.0,11.0,45,0.00,,,0.00,Wunderground v.1.13,2013-04-23 00:35:00,
2013-04-22 19:45:00,56.2,34.6,29.95,SE,127,1.0,1.0,44,0.00,,,0.00,Wunderground v.1.13,2013-04-23 00:45:00,
2013-04-22 19:50:00,55.9,34.8,29.95,ESE,121,1.0,11.0,45,0.00,,,0.00,Wunderground v.1.13,2013-04-23 00:50:00,
2013-04-22 19:55:00,55.7,35.2,29.95,SSE,154,1.0,1.0,46,0.00,,,0.00,Wunderground v.1.13,2013-04-23 00:55:00,
2013-04-22 20:00:00,55.4,34.9,29.95,SSE,163,1.0,1.0,46,0.00,,,0.00,Wunderground v.1.13,2013-04-23 01:00:00,
2013-04-22 20:05:00,55.3,35.4,29.95,SSE,158,1.0,1.0,47,0.00,,,0.00,Wunderground v.1.13,2013-04-23 01:05:00,
2013-04-22 20:15:00,55.0,35.7,29.95,SE,132,0.0,10.0,48,0.00,,,0.00,Wunderground v.1.13,2013-04-23 01:15:00,
2013-04-22 20:25:00,54.8,35.5,29.95,SSE,148,1.0,10.0,48,0.00,,,0.00,Wunderground v.1.13,2013-04-23 01:25:00,
2013-04-22 20:35:00,54.5,35.2,29.95,SE,134,0.0,8.0,48,0.00,,,0.00,Wunderground v.1.13,2013-04-23 01:35:00,
2013-04-22 20:45:00,54.4,35.1,29.95,SE,125,1.0,1.0,48,0.00,,,0.00,Wunderground v.1.13,2013-04-23 01:45:00,
2013-04-22 20:50:00,54.2,34.9,29.95,SE,127,1.0,1.0,48,0.00,,,0.00,Wunderground v.1.13,2013-04-23 01:50:00,
2013-04-22 21:00:00,53.9,35.2,29.95,SE,140,1.0,8.0,49,0.00,,,0.00,Wunderground v.1.13,2013-04-23 02:00:00,
2013-04-22 21:05:00,53.8,35.1,29.95,SE,125,0.0,7.0,49,0.00,,,0.00,Wunderground v.1.13,2013-04-23 02:05:00,
2013-04-22 21:15:00,53.6,34.4,29.95,SSE,160,1.0,1.0,48,0.00,,,0.00,Wunderground v.1.13,2013-04-23 02:15:00,
2013-04-22 21:25:00,53.2,34.5,29.95,SE,136,0.0,7.0,49,0.00,,,0.00,Wunderground v.1.13,2013-04-23 02:25:00,
2013-04-22 21:35:00,53.2,34.5,29.96,SE,130,1.0,1.0,49,0.00,,,0.00,Wunderground v.1.13,2013-04-23 02:35:00,
2013-04-22 21:45:00,53.1,33.9,29.96,SSE,161,1.0,8.0,48,0.00,,,0.00,Wunderground v.1.13,2013-04-23 02:45:00,
2013-04-22 21:55:00,53.1,33.9,29.96,SSE,151,3.0,3.0,48,0.00,,,0.00,Wunderground v.1.13,2013-04-23 02:55:00,
2013-04-22 22:00:00,52.9,33.7,29.96,ESE,119,2.0,2.0,48,0.00,,,0.00,Wunderground v.1.13,2013-04-23 03:00:00,
2013-04-22 22:05:00,52.8,34.2,29.96,SSE,157,1.0,1.0,49,0.00,,,0.00,Wunderground v.1.13,2013-04-23 03:05:00,
2013-04-22 22:15:00,52.3,33.7,29.96,ESE,117,1.0,1.0,49,0.00,,,0.00,Wunderground v.1.13,2013-04-23 03:15:00,
2013-04-22 22:20:00,52.3,33.2,29.96,SE,136,1.0,8.0,48,0.00,,,0.00,Wunderground v.1.13,2013-04-23 03:20:00,
2013-04-22 22:25:00,52.5,33.4,29.96,SE,143,2.0,8.0,48,0.00,,,0.00,Wunderground v.1.13,2013-04-23 03:25:00,
2013-04-22 22:30:00,52.3,33.7,29.96,ESE,103,1.0,1.0,49,0.00,,,0.00,Wunderground v.1.13,2013-04-23 03:30:00,
2013-04-22 22:40:00,52.2,33.1,29.96,SSE,153,1.0,1.0,48,0.00,,,0.00,Wunderground v.1.13,2013-04-23 03:40:00,
2013-04-22 22:50:00,52.0,33.4,29.96,SE,140,1.0,12.0,49,0.00,,,0.00,Wunderground v.1.13,2013-04-23 03:50:00,
2013-04-22 22:55:00,52.2,33.6,29.95,SE,142,1.0,12.0,49,0.00,,,0.00,Wunderground v.1.13,2013-04-23 03:55:00,
2013-04-22 23:00:00,52.2,33.6,29.95,SSE,158,2.0,2.0,49,0.00,,,0.00,Wunderground v.1.13,2013-04-23 04:00:00,
2013-04-22 23:05:00,52.0,33.4,29.95,SE,142,1.0,1.0,49,0.00,,,0.00,Wunderground v.1.13,2013-04-23 04:05:00,
2013-04-22 23:10:00,52.0,33.9,29.95,SSE,155,1.0,8.0,50,0.00,,,0.00,Wunderground v.1.13,2013-04-23 04:10:00,
2013-04-22 23:15:00,51.9,33.8,29.95,SSE,157,1.0,1.0,50,0.00,,,0.00,Wunderground v.1.13,2013-04-23 04:15:00,
2013-04-22 23:20:00,51.7,33.6,29.95,SSE,162,0.0,8.0,50,0.00,,,0.00,Wunderground v.1.13,2013-04-23 04:20:00,
2013-04-22 23:25:00,51.9,34.3,29.93,SSE,159,1.0,1.0,51,0.00,,,0.00,Wunderground v.1.13,2013-04-23 04:25:00,
2013-04-22 23:30:00,51.7,34.1,29.93,SE,130,1.0,1.0,51,0.00,,,0.00,Wunderground v.1.13,2013-04-23 04:30:00,
2013-04-22 23:35:00,51.6,34.0,29.93,ESE,119,0.0,8.0,51,0.00,,,0.00,Wunderground v.1.13,2013-04-23 04:35:00,
2013-04-22 23:45:00,51.6,34.5,29.93,SE,145,1.0,8.0,52,0.00,,,0.00,Wunderground v.1.13,2013-04-23 04:45:00,
2013-04-22 23:50:00,51.6,34.5,29.93,SSE,163,1.0,1.0,52,0.00,,,0.00,Wunderground v.1.13,2013-04-23 04:50:00,
2013-04-22 23:55:00,51.7,34.6,29.92,SSE,148,1.0,8.0,52,0.00,,,0.00,Wunderground v.1.13,2013-04-23 04:55:00,